OK1KZE-6 Weather Reports


Display with metric or nautical units.
time (UTC)temp
F
wind
direction
speed
MPH
gust
MPH
rain 1hr
in
rain 24hr
in
rain mn
in
humidity
%
barometer
mb
20260831022007 64 192 9.0 10.0 0.00 0.00 0.00 75 1016.9
20260831021508 65 191 9.0 10.0 0.00 0.00 0.00 74 1017.1
20260831021007 65 185 10.0 10.0 0.00 0.00 0.00 74 1017.0
20260831020507 64 181 8.0 9.0 0.00 0.00 0.00 76 1016.9
20260831020008 64 187 9.0 10.0 0.00 0.00 0.00 75 1017.0
20260831015507 66 190 10.0 10.0 0.00 0.00 0.00 72 1017.0
20260831015008 65 190 9.0 10.0 0.00 0.00 0.00 71 1017.1
20260831014507 64 188 6.0 8.0 0.00 0.00 0.00 75 1016.9
20260831014007 64 190 8.0 9.0 0.00 0.00 0.00 77 1017.2
20260831013507 64 187 10.0 10.0 0.00 0.00 0.00 76 1017.4
20260831013008 64 189 9.0 9.0 0.00 0.00 0.00 74 1017.3
20260831012507 65 181 6.0 7.0 0.00 0.00 0.00 73 1017.1
20260831012007 67 198 7.0 8.0 0.00 0.00 0.00 68 1017.2
20260831011508 30 0 0.0 0.0 0.00 0.00 0.00 100 1017.2
20260831011007 30 0 0.0 0.0 0.00 0.00 0.00 100 1017.0
20260831010507 68 209 7.0 8.0 0.00 0.00 0.00 65 1017.1
20260831010008 68 209 7.0 8.0 0.00 0.00 0.00 65 1017.2
20260831005507 30 0 0.0 0.0 0.00 0.00 0.00 100 1017.3
20260831005008 30 0 0.0 0.0 0.00 0.00 0.00 100 1017.4
20260831004508 69 213 7.0 7.0 0.00 0.00 0.00 64 1017.4
20260831004007 69 213 7.0 7.0 0.00 0.00 0.00 64 1017.5
20260831003508 68 203 7.0 7.0 0.00 0.00 0.00 64 1017.4
20260831003007 69 208 5.0 6.0 0.00 0.00 0.00 62 1017.4
20260831002508 70 237 7.0 8.0 0.00 0.00 0.00 61 1017.4
20260831002007 69 205 7.0 7.0 0.00 0.00 0.00 63 1017.4
20260831001508 69 205 7.0 7.0 0.00 0.00 0.00 63 1017.5
20260831001007 68 196 6.0 7.0 0.00 0.00 0.00 64 1017.6
20260831000507 68 196 6.0 7.0 0.00 0.00 0.00 64 1017.5
20260831000008 69 199 6.0 8.0 0.00 0.00 0.00 64 1017.5
20260830235507 69 199 6.0 8.0 0.00 0.00 0.00 64 1017.4
20260830235008 69 197 6.0 8.0 0.00 0.00 0.00 64 1017.4
20260830234507 69 204 6.0 8.0 0.00 0.00 0.00 63 1017.6
20260830234008 69 198 8.0 8.0 0.00 0.00 0.00 63 1017.7
20260830233507 68 199 7.0 8.0 0.00 0.00 0.00 64 1017.6
20260830233008 69 199 7.0 7.0 0.00 0.00 0.00 63 1017.5
20260830232508 69 202 7.0 8.0 0.00 0.00 0.00 63 1017.5
20260830232007 69 201 8.0 8.0 0.00 0.00 0.00 63 1017.7
20260830231508 69 202 7.0 8.0 0.00 0.00 0.00 62 1017.6
20260830231008 69 192 8.0 8.0 0.00 0.00 0.00 64 1017.6
20260830230507 69 209 6.0 7.0 0.00 0.00 0.00 62 1017.8
20260830230008 69 205 6.0 8.0 0.00 0.00 0.00 63 1017.7
20260830225507 69 193 6.0 7.0 0.00 0.00 0.00 63 1017.7
20260830225008 69 207 7.0 8.0 0.00 0.00 0.00 63 1017.8
20260830224507 70 198 6.0 6.0 0.00 0.00 0.00 62 1018.0
20260830224008 69 215 7.0 8.0 0.00 0.00 0.00 62 1017.7
20260830223508 69 200 6.0 8.0 0.00 0.00 0.00 62 1017.8
20260830223009 69 176 5.0 6.0 0.00 0.00 0.00 63 1017.9
20260830222507 69 201 6.0 6.0 0.00 0.00 0.00 63 1017.7
20260830222007 70 208 5.0 8.0 0.00 0.00 0.00 61 1017.8
20260830221508 69 220 7.0 8.0 0.00 0.00 0.00 62 1017.9
20260830221007 69 208 7.0 8.0 0.00 0.00 0.00 63 1017.9
20260830220508 70 197 7.0 8.0 0.00 0.00 0.00 61 1017.9
20260830220008 70 197 5.0 6.0 0.00 0.00 0.00 60 1017.8
20260830215507 70 196 5.0 5.0 0.00 0.00 0.00 61 1017.7
20260830215008 69 205 4.0 5.0 0.00 0.00 0.00 62 1017.9
20260830214508 69 202 4.0 5.0 0.00 0.00 0.00 62 1018.0
20260830214008 70 213 6.0 6.0 0.00 0.00 0.00 61 1017.6
20260830213508 70 245 6.0 8.0 0.00 0.00 0.00 60 1017.7
20260830213008 70 251 6.0 7.0 0.00 0.00 0.00 60 1017.7
20260830212507 71 246 9.0 11.0 0.00 0.00 0.00 59 1018.0
20260830212007 71 243 9.0 11.0 0.00 0.00 0.00 59 1018.0
20260830211507 71 259 8.0 8.0 0.00 0.00 0.00 59 1017.7
20260830211007 71 256 8.0 8.0 0.00 0.00 0.00 59 1017.8
20260830210508 71 260 9.0 11.0 0.00 0.00 0.00 59 1017.8
20260830210007 71 260 9.0 11.0 0.00 0.00 0.00 59 1017.7
20260830205508 71 256 8.0 11.0 0.00 0.00 0.00 59 1018.1
20260830205008 70 263 10.0 12.0 0.00 0.00 0.00 60 1017.9
20260830204508 71 257 8.0 12.0 0.00 0.00 0.00 60 1018.2
20260830204007 70 255 10.0 11.0 0.00 0.00 0.00 62 1018.1
20260830203507 70 262 11.0 12.0 0.00 0.00 0.00 61 1017.9
20260830203008 70 259 10.0 11.0 0.00 0.00 0.00 60 1017.9
20260830202508 70 257 8.0 9.0 0.00 0.00 0.00 61 1018.1
20260830202007 71 261 9.0 9.0 0.00 0.00 0.00 60 1017.8
20260830201507 71 261 9.0 10.0 0.00 0.00 0.00 58 1017.7
20260830201008 72 260 9.0 9.0 0.00 0.00 0.00 56 1017.8
20260830200508 72 246 9.0 11.0 0.00 0.00 0.00 56 1018.0
20260830200007 72 252 10.0 13.0 0.00 0.00 0.00 56 1017.8
20260830195508 72 252 11.0 11.0 0.00 0.00 0.00 56 1017.9
20260830195008 73 252 10.0 12.0 0.00 0.00 0.00 55 1017.8
20260830194508 73 251 10.0 12.0 0.00 0.00 0.00 55 1017.9
20260830194008 73 249 9.0 11.0 0.00 0.00 0.00 55 1018.2
20260830193508 73 247 11.0 12.0 0.00 0.00 0.00 55 1017.9
20260830193007 73 244 8.0 9.0 0.00 0.00 0.00 56 1018.0
20260830192509 73 246 9.0 10.0 0.00 0.00 0.00 56 1017.9
20260830192007 73 235 7.0 11.0 0.00 0.00 0.00 56 1017.9
20260830191508 73 243 9.0 10.0 0.00 0.00 0.00 55 1017.9
20260830191007 73 253 9.0 11.0 0.00 0.00 0.00 54 1017.7
20260830190508 74 238 6.0 8.0 0.00 0.00 0.00 54 1017.9
20260830190008 74 240 7.0 9.0 0.00 0.00 0.00 54 1018.0
20260830185507 74 244 8.0 9.0 0.00 0.00 0.00 54 1018.0
20260830185007 73 238 8.0 9.0 0.00 0.00 0.00 54 1017.8
20260830184508 74 231 8.0 8.0 0.00 0.00 0.00 54 1017.8
20260830184008 73 238 8.0 9.0 0.00 0.00 0.00 54 1017.5
20260830183507 74 223 6.0 8.0 0.00 0.00 0.00 54 1017.8
20260830183008 74 235 6.0 8.0 0.00 0.00 0.00 54 1017.5
20260830182508 30 0 0.0 0.0 0.00 0.00 0.00 100 1017.6
20260830182008 74 214 6.0 7.0 0.00 0.00 0.00 53 1017.5
20260830181507 74 214 6.0 7.0 0.00 0.00 0.00 53 1017.6
20260830181007 74 237 6.0 7.0 0.00 0.00 0.00 53 1017.2
20260830180508 74 227 5.0 7.0 0.00 0.00 0.00 53 1017.5
20260830180008 74 240 7.0 8.0 0.00 0.00 0.00 53 1017.2
20260830175507 74 227 6.0 8.0 0.00 0.00 0.00 52 1017.2
20260830173007 30 0 0.0 0.0 0.00 0.00 0.00 100 1017.1
20260830172507 30 0 0.0 0.0 0.00 0.00 0.00 100 1017.2
20260830172007 30 0 0.0 0.0 0.00 0.00 0.00 100 1017.3
20260830171508 30 0 0.0 0.0 0.00 0.00 0.00 100 1017.1
20260830171006 30 0 0.0 0.0 0.00 0.00 0.00 100 1017.2
20260830170508 30 0 0.0 0.0 0.00 0.00 0.00 100 1017.2
20260830170008 30 0 0.0 0.0 0.00 0.00 0.00 100 1017.4
20260830165507 30 0 0.0 0.0 0.00 0.00 0.00 100 1017.2
20260830165007 30 0 0.0 0.0 0.00 0.00 0.00 100 1017.1
20260830164508 30 0 0.0 0.0 0.00 0.00 0.00 100 1017.3
20260830164008 75 236 6.0 8.0 0.00 0.00 0.00 51 1017.4
20260830163509 75 236 6.0 8.0 0.00 0.00 0.00 51 1017.1
20260830163007 75 231 4.0 5.0 0.00 0.00 0.00 50 1017.1
20260830162507 76 240 10.0 10.0 0.00 0.00 0.00 49 1017.2
20260830162007 76 248 4.0 6.0 0.00 0.00 0.00 50 1017.1
20260830161508 76 222 6.0 8.0 0.00 0.00 0.00 48 1017.3
20260830161007 76 210 8.0 9.0 0.00 0.00 0.00 48 1017.2
20260830160508 76 253 10.0 13.0 0.00 0.00 0.00 47 1017.3
20260830160007 76 242 9.0 12.0 0.00 0.00 0.00 48 1017.1
20260830155507 76 232 11.0 11.0 0.00 0.00 0.00 47 1017.2
20260830155007 76 241 6.0 7.0 0.00 0.00 0.00 47 1017.4
20260830154507 76 272 10.0 10.0 0.00 0.00 0.00 47 1017.4
20260830154008 76 260 8.0 8.0 0.00 0.00 0.00 47 1017.2
20260830153508 76 257 6.0 7.0 0.00 0.00 0.00 47 1017.2
20260830153007 76 254 7.0 10.0 0.00 0.00 0.00 47 1017.4
20260830152508 76 234 11.0 14.0 0.00 0.00 0.00 46 1017.3
20260830152007 76 245 12.0 14.0 0.00 0.00 0.00 46 1017.5
20260830151508 76 259 6.0 13.0 0.00 0.00 0.00 46 1017.5
20260830151007 76 227 9.0 13.0 0.00 0.00 0.00 46 1017.5
20260830150507 77 230 12.0 12.0 0.00 0.00 0.00 45 1017.4
20260830150007 77 236 21.0 25.0 0.00 0.00 0.00 44 1017.5
20260830145507 78 261 15.0 15.0 0.00 0.00 0.00 45 1017.5
20260830145008 76 244 5.0 7.0 0.00 0.00 0.00 46 1017.5
20260830144508 77 250 11.0 17.0 0.00 0.00 0.00 46 1017.6
20260830144007 77 242 12.0 17.0 0.00 0.00 0.00 45 1017.6
20260830143508 76 248 7.0 12.0 0.00 0.00 0.00 47 1017.6
20260830143008 76 254 13.0 14.0 0.00 0.00 0.00 46 1017.7
20260830142507 76 253 11.0 12.0 0.00 0.00 0.00 47 1017.6
20260830142008 76 252 14.0 19.0 0.00 0.00 0.00 46 1017.7
20260830141507 76 241 15.0 17.0 0.00 0.00 0.00 46 1017.7
20260830141007 76 245 17.0 19.0 0.00 0.00 0.00 46 1017.7
20260830140507 76 256 20.0 23.0 0.00 0.00 0.00 45 1017.7
20260830140009 77 259 9.0 13.0 0.00 0.00 0.00 45 1017.5
20260830135508 77 245 6.0 12.0 0.00 0.00 0.00 45 1017.5
20260830135007 77 300 7.0 10.0 0.00 0.00 0.00 46 1017.5
20260830134508 77 240 13.0 24.0 0.00 0.00 0.00 45 1017.8
20260830134008 76 255 11.0 12.0 0.00 0.00 0.00 46 1017.8
20260830133508 76 231 9.0 11.0 0.00 0.00 0.00 45 1017.8
20260830133008 76 231 18.0 18.0 0.00 0.00 0.00 45 1017.9
20260830132507 76 257 17.0 19.0 0.00 0.00 0.00 45 1018.0
20260830132007 76 240 12.0 18.0 0.00 0.00 0.00 46 1017.9
20260830131507 76 240 21.0 21.0 0.00 0.00 0.00 45 1017.9
20260830131007 76 253 20.0 20.0 0.00 0.00 0.00 46 1017.9
20260830130508 76 275 6.0 10.0 0.00 0.00 0.00 49 1017.9
20260830130007 76 259 9.0 11.0 0.00 0.00 0.00 49 1017.8
20260830125509 76 280 18.0 19.0 0.00 0.00 0.00 48 1017.7
20260830125009 76 274 17.0 17.0 0.00 0.00 0.00 49 1017.5
20260830124508 75 256 15.0 19.0 0.00 0.00 0.00 50 1017.8
20260830124008 75 285 12.0 13.0 0.00 0.00 0.00 50 1017.7
20260830123507 76 262 17.0 19.0 0.00 0.00 0.00 50 1017.9
20260830123008 76 264 4.0 12.0 0.00 0.00 0.00 50 1017.8
20260830122507 75 261 18.0 18.0 0.00 0.00 0.00 49 1017.8
20260830122008 75 287 12.0 15.0 0.00 0.00 0.00 51 1017.9
20260830121507 75 241 13.0 15.0 0.00 0.00 0.00 51 1017.7
20260830121008 75 254 13.0 15.0 0.00 0.00 0.00 52 1018.0
20260830120508 75 251 15.0 21.0 0.00 0.00 0.00 53 1017.8
20260830120008 75 268 10.0 17.0 0.00 0.00 0.00 52 1018.1
20260830115508 75 274 14.0 16.0 0.00 0.00 0.00 50 1018.0
20260830115009 75 246 12.0 17.0 0.00 0.00 0.00 51 1018.0
20260830114507 75 267 11.0 15.0 0.00 0.00 0.00 53 1018.1
20260830114007 75 257 18.0 21.0 0.00 0.00 0.00 51 1018.2
20260830113508 75 265 16.0 18.0 0.00 0.00 0.00 51 1018.0
20260830113008 74 265 14.0 20.0 0.00 0.00 0.00 51 1017.7
20260830112507 75 271 19.0 21.0 0.00 0.00 0.00 49 1018.0
20260830112008 75 280 17.0 20.0 0.00 0.00 0.00 52 1018.1
20260830111508 74 279 20.0 24.0 0.00 0.00 0.00 53 1017.8
20260830111008 74 237 9.0 11.0 0.00 0.00 0.00 52 1017.9
20260830110508 73 261 19.0 21.0 0.00 0.00 0.00 53 1018.0
20260830110008 73 248 10.0 17.0 0.00 0.00 0.00 54 1018.2
20260830105508 73 266 25.0 27.0 0.00 0.00 0.00 52 1017.9
20260830105007 73 265 21.0 26.0 0.00 0.00 0.00 54 1018.0
20260830104508 74 224 9.0 19.0 0.00 0.00 0.00 54 1018.0
20260830104009 74 258 22.0 23.0 0.00 0.00 0.00 53 1017.9
20260830103508 73 236 16.0 18.0 0.00 0.00 0.00 55 1018.1
20260830103008 74 246 16.0 18.0 0.00 0.00 0.00 54 1018.2
20260830102507 74 264 16.0 18.0 0.00 0.00 0.00 54 1018.2
20260830102007 74 259 16.0 16.0 0.00 0.00 0.00 55 1018.2
20260830101509 73 233 13.0 15.0 0.00 0.00 0.00 56 1018.3
20260830101007 73 253 11.0 14.0 0.00 0.00 0.00 56 1018.2
20260830100508 72 245 14.0 17.0 0.00 0.00 0.00 56 1018.1
20260830100008 72 230 12.0 15.0 0.00 0.00 0.00 57 1018.1
20260830095508 71 251 15.0 17.0 0.00 0.00 0.00 57 1018.3
20260830095008 71 244 8.0 11.0 0.00 0.00 0.00 58 1018.5
20260830094508 71 247 23.0 24.0 0.00 0.00 0.00 57 1018.3
20260830094008 71 264 18.0 24.0 0.00 0.00 0.00 57 1018.1
20260830093508 72 272 10.0 19.0 0.00 0.00 0.00 57 1018.3
20260830093008 72 239 24.0 27.0 0.00 0.00 0.00 55 1018.3
20260830092507 72 257 11.0 17.0 0.00 0.00 0.00 57 1018.3
20260830092007 71 243 14.0 16.0 0.00 0.00 0.00 58 1018.2
20260830091508 71 262 15.0 16.0 0.00 0.00 0.00 58 1018.1
20260830091009 71 260 12.0 18.0 0.00 0.00 0.00 59 1018.4
20260830090507 71 241 12.0 12.0 0.00 0.00 0.00 59 1018.4
20260830090008 71 244 10.0 16.0 0.00 0.00 0.00 59 1018.4
20260830085507 71 271 6.0 13.0 0.00 0.00 0.00 59 1018.6
20260830085008 71 246 11.0 20.0 0.00 0.00 0.00 58 1018.5
20260830084508 71 253 10.0 14.0 0.00 0.00 0.00 59 1018.3
20260830084008 71 247 16.0 21.0 0.00 0.00 0.00 59 1018.4
20260830083508 70 278 17.0 22.0 0.00 0.00 0.00 60 1018.2
20260830083008 71 283 10.0 14.0 0.00 0.00 0.00 59 1018.3
20260830082507 71 207 4.0 6.0 0.00 0.00 0.00 60 1018.4
20260830082007 70 235 12.0 13.0 0.00 0.00 0.00 60 1018.4
20260830081507 70 256 8.0 15.0 0.00 0.00 0.00 61 1018.4
20260830081007 70 208 3.0 7.0 0.00 0.00 0.00 62 1018.4
20260830080508 69 247 6.0 15.0 0.00 0.00 0.00 62 1018.6
20260830080008 69 242 10.0 19.0 0.00 0.00 0.00 63 1018.4
20260830075509 69 254 8.0 13.0 0.00 0.00 0.00 62 1018.5
20260830075009 69 252 9.0 15.0 0.00 0.00 0.00 62 1018.4
20260830074507 69 285 10.0 15.0 0.00 0.00 0.00 62 1018.4
20260830074007 68 245 9.0 14.0 0.00 0.00 0.00 62 1018.5
20260830073509 68 234 20.0 21.0 0.00 0.00 0.00 62 1018.0
20260830073008 68 244 12.0 18.0 0.00 0.00 0.00 62 1018.3
20260830072508 68 254 10.0 13.0 0.00 0.00 0.00 63 1018.2
20260830072008 67 220 14.0 18.0 0.00 0.00 0.00 64 1018.2
20260830071508 67 238 12.0 14.0 0.00 0.00 0.00 66 1018.3
20260830071006 67 228 8.0 12.0 0.00 0.00 0.00 67 1018.1
20260830070508 67 201 9.0 11.0 0.00 0.00 0.00 67 1018.1
20260830070008 67 222 9.0 9.0 0.00 0.00 0.00 67 1018.0
20260830065509 66 209 8.0 11.0 0.00 0.00 0.00 68 1017.8
20260830065008 65 203 12.0 12.0 0.00 0.00 0.00 69 1018.0
20260830064508 65 172 8.0 11.0 0.00 0.00 0.00 71 1018.0
20260830064008 64 192 10.0 11.0 0.00 0.00 0.00 70 1017.9
20260830063508 64 187 10.0 12.0 0.00 0.00 0.00 72 1017.9
20260830063007 63 186 7.0 9.0 0.00 0.00 0.00 73 1017.8
20260830062508 63 190 7.0 11.0 0.00 0.00 0.00 73 1017.8
20260830062007 63 192 12.0 14.0 0.00 0.00 0.00 73 1017.7
20260830061508 62 182 9.0 14.0 0.00 0.00 0.00 74 1018.0
20260830061007 61 183 11.0 13.0 0.00 0.00 0.00 76 1017.9
20260830060506 61 192 12.0 14.0 0.00 0.00 0.00 75 1017.7
20260830060009 61 186 11.0 13.0 0.00 0.00 0.00 75 1017.6
20260830055508 61 178 10.0 13.0 0.00 0.00 0.00 75 1017.6
20260830055007 61 181 12.0 13.0 0.00 0.00 0.00 75 1017.6
20260830054507 61 186 12.0 12.0 0.00 0.00 0.00 75 1017.7
20260830054008 61 171 9.0 9.0 0.00 0.00 0.00 76 1017.5
20260830053507 61 200 11.0 12.0 0.00 0.00 0.00 75 1017.6
20260830053008 61 201 13.0 15.0 0.00 0.00 0.00 75 1017.5
20260830052508 61 199 14.0 16.0 0.00 0.00 0.00 76 1017.6
20260830052007 61 186 10.0 13.0 0.00 0.00 0.00 76 1017.5
20260830051507 61 201 12.0 15.0 0.00 0.00 0.00 75 1017.7
20260830051006 61 184 13.0 14.0 0.00 0.00 0.00 76 1017.4
20260830050509 61 186 13.0 13.0 0.00 0.00 0.00 76 1017.6
20260830050008 61 181 12.0 15.0 0.00 0.00 0.00 75 1017.3
20260830045508 61 182 13.0 16.0 0.00 0.00 0.00 75 1017.3
20260830045008 61 185 12.0 13.0 0.00 0.00 0.00 75 1017.3
20260830044508 61 194 15.0 17.0 0.00 0.00 0.00 74 1017.2
20260830044008 61 176 15.0 16.0 0.00 0.00 0.00 74 1017.2
20260830043508 61 191 14.0 17.0 0.00 0.00 0.00 75 1017.2
20260830042507 61 183 14.0 15.0 0.00 0.00 0.00 73 1017.4
20260830042007 62 187 14.0 17.0 0.00 0.00 0.00 73 1017.6
20260830041508 62 188 14.0 14.0 0.00 0.00 0.00 72 1017.5
20260830041007 62 178 13.0 17.0 0.00 0.00 0.00 72 1017.4
20260830040508 62 192 15.0 17.0 0.00 0.00 0.00 71 1017.6
20260830040008 62 189 15.0 16.0 0.00 0.00 0.00 72 1017.3
20260830035508 62 183 15.0 18.0 0.00 0.00 0.00 72 1017.3
20260830035007 62 185 14.0 16.0 0.00 0.00 0.00 72 1017.2
20260830034507 62 191 16.0 16.0 0.00 0.00 0.00 72 1017.1
20260830034007 62 184 15.0 16.0 0.00 0.00 0.00 72 1017.3
20260830033508 62 182 13.0 14.0 0.00 0.00 0.00 72 1017.2
20260830033009 62 176 15.0 17.0 0.00 0.00 0.00 72 1017.1
20260830032508 62 178 16.0 19.0 0.00 0.00 0.00 71 1017.4
20260830032007 62 179 13.0 17.0 0.00 0.00 0.00 72 1017.1
20260830031508 61 195 11.0 13.0 0.00 0.00 0.00 73 1017.5
20260830031007 62 172 13.0 18.0 0.00 0.00 0.00 72 1017.2
20260830030508 62 180 14.0 16.0 0.00 0.00 0.00 72 1017.2
20260830030008 62 175 11.0 15.0 0.00 0.00 0.00 72 1017.2
20260830025508 62 182 13.0 14.0 0.00 0.00 0.00 71 1017.1
20260830025008 62 180 13.0 18.0 0.00 0.00 0.00 71 1017.2
20260830024507 62 178 11.0 19.0 0.00 0.00 0.00 71 1017.4
20260830024007 62 184 15.0 18.0 0.00 0.00 0.00 72 1017.2
20260830023508 62 172 15.0 18.0 0.00 0.00 0.00 71 1017.0
20260830023007 62 178 13.0 15.0 0.00 0.00 0.00 71 1017.2
20260830022507 62 182 15.0 17.0 0.00 0.00 0.00 71 1017.2